map of PBM home
Great Circle Mapper logo
PBM - Airport
Location
City:  Zanderij, Suriname
Near (Alt.):Zandery, Paramaribo
Name:Johan Adolf Pengel International Airport
Old (Alt.):Zanderij International Airport
ICAO / IATA:SMJP / PBM

Details
Type:Airport (Aerodrome, Airfield)
Use:Public/Civil, International (customs port of entry)
Latitude:527'10"N (5.452831)
Longitude:5511'16"W (-55.187782)
Datum:WGS 1984
Elevation:59 ft (18 m)
Variation:17.4W (WMM2015 magnetic declination)
Runways:1
Longest:11417 × 148 ft (3480 × 45 m), paved

Time
Time Zone:UTC-3
Local Time:

Weather
METAR:SMJP 201500Z 04012KT 2000 SHRA FEW008 FEW015CB BKN025 25/24 Q1014 BECMG AT1530 5000 SHRA

Related Locations
Nearby:
Farthest:BUW: 12296 mi / 19789 km
Bau Bau [Betoambari], Sulawesi Island, ID

Find:

   beyond  
but within

Other Information
Maps:
NOTAMs:
Links:
Sources:

  
flag of Suriname   

Sectional Chart

Flight Planning
at skyvector.com

Satellite Image

Google Maps Satellite View

 

Copyright © 2004-2014 Karl L. Swartz. All rights reserved.
The Great Circle Mapper name and logo are trademarks of the Great Circle Mapper.
All other trademarks mentioned herein belong to their respective owners.
Please see credits for attibutions and further copyright information.

  Follow gcmap on Facebook Follow gcmap on Twitter

hCard Microformat

Geo Microformat